Location: Hermaringen
(48.5952°N, 10.2585°E)
Time: 20:54:04
(UTC+00:00)

Cosmos 1536 Rocket - Pass Details

Date: 18 November 2025
Orbit: 599 x 625 km, 82.5° (Epoch: 10 December)

Event Time Altitude Azimuth Distance (km) Brightness Sun altitude
Rises 17:05:38 0° 353° (N) 2,918 7.0 -14.7°
Reaches altitude 10° 17:07:56 10° 358° (N) 2,004 6.1 -15.0°
Maximum altitude 17:12:18 56° 77° (ENE) 744 3.6 -15.7°
Drops below altitude 10° 17:16:36 10° 156° (SSE) 1,974 6.0 -16.4°
Sets 17:18:50 0° 161° (SSE) 2,870 6.9 -16.8°
